カタログに戻る

SL-12 R/B

AUX MOTOR

運用中HEO
NORAD 29682·ROCKET BODY·🇷🇺 Russia

打ち上げ Dec 25, 2006 から Baikonur Cosmodrome

Loading…

次のパス (今後24時間)

TLE

最新Source: Space-Track

元期: Sep 14, 2026, 11:50 UTC

1 29682U 06062H   26257.49327908  .00000026  00000-0  53843-3 0  9999
2 29682  65.1381 346.9872 5634165 247.8174  45.0810  4.25390974305374

AllMySatでSL-12 R/Bをリアルタイム追跡

Download on the App Store